GFSMW_500_spd_000.txt.gz
Wind_Speed
18 22 20 21 24 27 29 31 34 34 35 39 41 44 46 48 50 52 55 54 57 59 64 70 71 71 67 62 61 60 60 59 56 50 49 49 50 47 46 44 40 37 35
19 21 25 26 30 33 36 38 41 43 43 45 49 50 52 54 57 59 62 62 62 62 67 67 67 69 70 71 69 66 62 59 58 57 52 49 50 53 50 49 48 45 43
24 24 25 28 32 35 38 42 45 49 51 51 55 56 56 58 60 64 66 67 68 70 69 67 67 68 68 66 68 68 67 62 59 57 57 52 51 53 54 54 54 53 50
27 29 30 34 40 40 41 44 48 49 51 54 54 57 60 60 62 65 68 71 73 74 75 71 69 68 65 64 64 64 63 63 63 62 58 57 55 53 53 56 57 56 56
36 38 39 41 43 44 47 47 51 50 52 56 58 59 60 61 64 68 72 75 74 72 71 68 65 62 63 63 64 62 61 61 62 62 60 60 58 55 55 56 58 60 60
38 38 41 42 45 50 52 52 54 53 54 57 59 61 61 63 68 71 73 72 68 67 65 62 61 58 59 61 62 62 61 59 59 60 59 57 59 56 56 57 59 59 59
47 43 46 49 51 55 55 58 58 58 57 58 59 61 64 66 70 71 72 72 68 63 61 60 59 60 65 63 60 60 58 56 55 55 55 56 55 57 57 57 59 62 60
59 56 56 56 57 59 58 57 61 64 64 64 63 66 65 68 70 70 72 66 62 60 59 57 58 60 64 65 63 60 58 56 52 52 51 52 53 54 56 58 59 61 63
60 60 60 64 64 60 63 66 63 63 63 64 66 66 69 71 73 72 68 62 62 62 58 56 56 62 65 65 63 60 55 52 50 49 50 51 53 55 57 59 61 65 66
61 63 65 67 66 64 68 67 66 64 64 65 65 67 71 75 72 68 64 63 62 60 57 56 62 64 67 64 59 56 54 54 52 52 54 56 60 61 64 66 67 70 72
66 65 65 67 67 67 66 66 66 63 61 64 69 71 72 71 67 65 63 61 59 57 56 59 61 63 60 59 57 57 58 61 64 66 68 69 70 70 71 71 71 72 73
63 63 63 67 66 65 64 64 63 63 67 70 73 72 74 73 66 62 60 58 56 53 54 57 57 57 58 60 60 63 68 72 74 75 75 73 71 71 72 73 74 74 73
62 64 65 67 65 64 63 63 67 71 72 73 75 78 77 68 62 60 58 56 52 52 53 54 56 58 61 64 69 73 74 74 74 75 75 74 74 74 72 70 70 70 71
64 64 63 63 64 63 63 68 72 75 76 77 80 82 71 64 63 59 55 52 50 51 52 55 60 64 69 71 71 73 74 75 74 74 72 69 64 61 59 57 55 53 55
62 60 63 65 65 67 70 74 76 78 78 82 83 77 68 65 59 53 49 49 50 52 56 62 66 67 69 71 73 73 72 70 63 54 48 41 38 37 36 36 33 36 35
64 65 65 66 68 72 75 76 80 81 83 85 78 70 67 61 54 50 50 50 53 58 63 64 65 68 70 71 69 66 56 44 38 31 30 31 31 30 30 32 33 36 37
67 69 70 72 74 78 79 81 82 83 83 77 71 68 61 53 51 50 52 55 59 61 62 64 68 68 67 61 53 44 38 31 28 28 28 29 31 33 33 35 36 36 39
71 72 74 76 79 80 81 82 83 84 78 71 65 58 54 52 51 52 56 60 60 61 64 66 66 62 53 44 40 33 27 28 30 32 34 34 35 38 39 40 39 41 44
76 77 79 81 82 82 83 84 84 80 74 64 58 54 51 50 52 55 59 59 60 63 65 63 57 49 39 33 31 28 28 31 32 34 38 38 38 42 45 45 46 47 45
80 81 81 81 83 83 85 84 81 73 61 56 52 51 51 51 55 57 57 59 62 64 61 52 44 37 32 27 26 28 33 34 36 37 40 42 43 41 39 38 34 32 35
80 80 82 84 84 85 84 79 70 61 56 52 51 50 51 55 56 56 58 60 62 60 50 40 32 30 27 27 30 34 36 37 36 36 36 35 35 35 34 29 29 29 30
80 82 84 84 86 83 76 67 62 56 52 51 50 50 55 55 54 56 59 61 59 51 42 29 26 26 27 30 30 31 32 33 33 29 24 22 23 19 19 19 19 20 21
82 83 84 83 79 74 66 60 56 52 51 49 49 53 54 53 54 57 59 58 52 42 31 23 21 24 28 27 28 29 28 29 23 17 18 19 16 16 18 22 24 22 22
81 81 80 77 73 66 59 55 52 51 49 49 53 54 52 53 57 59 57 52 43 34 20 16 18 22 25 24 24 24 24 24 19 19 19 17 18 19 19 20 18 17 20
84 78 73 68 63 58 55 51 50 48 49 54 54 53 54 56 58 56 51 43 34 29 14 13 16 18 20 20 19 16 17 17 18 20 20 19 16 14 16 16 12 9 11
74 69 64 59 55 53 51 49 48 50 54 54 54 55 57 58 55 49 41 34 30 26 13 12 13 17 15 14 13 17 18 19 19 17 17 17 14 10 9 7 8 12 12

GFSMW_500_spd_003.txt.gz
Wind_Speed
24 24 23 23 24 25 27 31 36 39 39 43 45 46 47 48 50 52 54 55 56 58 60 60 61 62 65 68 68 68 68 68 67 63 57 57 56 56 57 55 53 51 48
20 26 27 28 29 32 36 39 40 42 45 48 48 50 51 51 54 56 58 60 61 61 61 62 65 68 71 72 73 73 72 71 67 66 61 57 58 59 59 58 58 56 53
27 29 34 36 38 39 38 41 45 48 51 52 52 54 54 53 55 58 60 62 63 63 66 68 70 73 74 72 70 66 66 67 65 64 63 59 57 58 59 60 60 62 59
33 35 37 37 38 40 43 44 47 49 52 56 58 57 55 57 58 59 63 63 63 66 69 71 73 73 73 67 63 61 59 62 64 63 62 58 58 58 58 59 61 64 65
40 33 40 42 41 39 39 43 47 49 51 51 53 57 58 59 59 60 61 64 68 68 70 73 74 73 69 64 61 60 59 59 59 58 60 59 58 60 60 57 59 64 68
51 48 47 45 42 41 44 48 49 52 54 57 55 53 55 56 59 61 62 64 67 69 71 71 69 63 60 59 61 59 60 58 60 59 57 57 56 57 60 62 58 61 67
52 53 53 52 54 52 54 55 57 61 60 60 61 62 62 62 62 63 64 66 65 64 65 65 63 60 61 59 54 58 63 60 64 62 60 56 55 55 57 58 59 61 63
54 57 60 61 61 60 60 60 63 65 61 58 60 62 62 62 65 68 69 68 69 66 62 63 62 63 60 58 56 61 62 63 64 63 62 58 53 52 53 54 57 60 63
57 62 64 64 64 63 62 63 65 64 63 62 62 61 62 66 68 68 68 70 69 65 61 60 61 62 65 66 67 64 64 64 62 63 57 53 50 48 48 50 55 58 61
58 59 57 57 60 60 61 64 64 62 63 62 60 63 67 69 69 68 69 66 62 60 59 60 62 62 61 61 60 60 60 61 59 55 52 51 51 50 51 51 53 55 59
63 61 61 61 63 64 62 60 62 61 61 61 66 69 70 72 71 70 67 61 57 57 57 58 58 56 56 56 58 59 58 57 56 57 59 59 60 61 62 63 64 65 66
59 55 55 57 57 58 59 60 62 63 65 67 70 72 74 75 74 72 63 57 58 57 56 54 54 54 54 55 56 58 58 59 62 65 67 68 69 69 69 68 69 70 72
56 55 54 57 59 61 63 65 67 69 72 73 75 76 77 76 77 72 62 59 57 52 51 51 52 53 54 55 58 62 64 66 66 67 69 70 70 70 70 71 71 71 72
55 54 57 59 62 65 67 68 70 74 77 78 78 79 79 78 73 63 58 53 50 49 49 51 52 53 56 60 62 64 65 66 67 67 67 67 66 66 66 67 68 69 71
54 57 60 60 63 66 69 72 74 76 78 82 83 82 80 77 68 58 51 49 48 47 48 51 54 57 59 60 62 64 64 63 62 57 53 49 46 46 44 44 45 50 55
61 63 66 69 70 72 74 77 79 80 83 85 85 82 78 67 58 52 49 48 48 48 51 55 54 55 58 61 62 61 59 54 45 38 35 30 29 30 31 31 31 34 34
66 68 72 73 74 77 79 80 82 84 85 86 81 75 63 56 51 48 48 48 49 52 52 52 55 58 60 61 58 54 44 34 27 25 24 25 26 29 30 30 30 30 31
70 73 75 77 78 79 81 83 84 85 84 79 74 64 56 51 49 49 48 48 52 52 52 54 58 60 60 55 50 37 27 24 24 26 29 30 31 33 33 32 33 34 35
76 78 80 80 81 83 85 86 86 83 79 73 62 56 51 49 49 48 49 53 52 51 54 57 59 58 54 48 34 24 24 26 30 33 35 36 38 39 40 38 37 38 41
83 84 82 81 83 85 86 87 85 79 72 63 57 52 49 49 48 49 53 52 51 53 56 57 55 53 50 35 25 25 27 30 32 33 34 37 39 39 39 39 37 34 31
82 80 83 84 85 86 87 86 79 71 63 57 50 49 49 47 49 54 53 51 52 55 56 54 47 47 35 24 22 28 32 31 30 31 32 29 24 22 22 29 33 31 29
75 77 81 84 86 86 86 79 70 62 56 51 49 48 47 50 54 53 51 52 55 56 54 47 40 35 27 21 25 30 30 29 29 29 27 25 24 21 20 16 15 18 18
77 79 82 85 85 84 79 67 60 55 50 49 47 46 50 54 54 52 53 55 56 54 48 40 32 25 22 22 27 26 25 25 25 24 23 22 21 17 18 16 15 14 16
80 82 90 86 81 76 62 55 53 51 50 47 46 51 55 55 53 55 57 56 53 49 42 32 22 20 19 21 21 20 20 22 18 17 20 21 18 15 14 12 15 13 13
84 87 93 81 71 58 52 52 52 50 47 47 52 56 56 55 57 58 57 53 49 45 35 24 16 13 14 15 15 13 15 13 12 13 17 22 22 15 7 7 8 10 7
84 93 82 68 56 51 51 51 49 46 48 54 57 57 58 59 58 55 51 48 44 38 26 17 11 9 9 9 8 9 9 11 13 13 12 18 23 19 9 6 9 11 16

GFSMW_500_spd_006.txt.gz
Wind_Speed
23 24 27 29 32 34 37 41 43 44 44 45 48 49 51 52 53 55 56 56 55 57 59 60 60 62 62 61 62 63 65 68 70 70 69 68 66 60 61 60 62 64 62
27 28 28 34 34 33 37 40 44 46 48 49 52 54 55 55 56 57 58 60 59 59 60 61 63 63 61 61 63 65 67 69 70 71 73 71 66 66 61 61 64 66 68
30 32 29 28 30 33 33 33 36 44 49 52 54 55 56 55 55 58 59 59 60 61 61 63 63 64 63 63 64 67 68 70 71 72 72 70 69 62 60 62 63 68 71
30 31 32 32 33 33 35 35 38 42 47 49 51 55 57 60 60 60 60 60 61 61 62 63 63 63 66 68 68 70 69 65 63 64 68 69 71 67 63 57 60 65 69
33 34 37 40 40 43 45 46 48 48 52 51 51 55 57 55 56 57 59 59 59 58 59 63 66 67 66 67 71 74 74 70 66 66 68 67 66 68 67 63 58 58 65
38 42 46 49 48 51 48 47 49 52 54 57 57 55 56 59 60 60 60 60 61 64 66 64 64 66 69 69 70 70 69 70 70 69 70 68 67 63 64 64 60 61 59
42 46 50 50 55 55 53 53 53 57 58 60 61 61 60 61 60 61 63 67 68 69 67 67 68 67 66 67 60 71 68 68 72 71 69 71 71 70 67 65 60 60 61
47 49 52 55 55 56 60 59 58 60 61 61 61 62 62 62 62 64 67 68 69 71 70 69 67 65 60 65 67 69 62 64 74 72 71 72 72 70 69 65 63 59 59
43 48 51 51 54 57 57 58 57 56 58 60 62 63 64 65 67 69 70 68 69 69 69 66 60 64 54 60 70 70 70 71 70 69 67 66 66 64 63 62 60 56 54
46 49 52 56 53 52 52 53 57 59 62 64 66 67 69 71 72 73 74 74 74 74 70 62 59 62 66 69 71 70 70 69 66 65 63 61 61 62 60 57 55 53 53
48 54 55 52 55 55 55 57 59 61 63 66 68 70 72 73 75 77 78 78 77 74 67 62 59 60 62 66 67 67 65 64 61 61 61 60 60 60 60 60 58 56 57
52 52 50 52 53 57 60 59 61 65 68 68 69 71 74 76 78 78 79 78 75 69 62 58 56 57 58 59 60 61 61 60 60 61 62 62 65 65 66 67 67 67 66
48 55 53 51 58 62 61 63 67 68 70 72 75 75 75 76 76 78 76 72 66 61 55 52 52 52 54 56 57 57 58 59 60 60 61 62 64 65 67 68 69 70 70
54 58 55 55 65 64 67 69 73 74 74 75 76 77 77 78 78 75 71 62 56 53 51 50 51 51 52 54 56 56 56 57 58 60 62 63 64 65 65 66 67 68 70
54 57 56 64 66 69 73 78 80 78 78 78 79 80 81 79 75 71 64 54 49 49 48 48 49 50 54 53 52 54 56 56 55 54 55 55 55 53 51 51 50 54 57
53 62 65 65 68 75 81 81 79 78 80 81 83 84 81 75 69 62 55 50 50 48 48 48 51 52 50 52 54 56 53 52 51 47 39 36 33 30 28 29 30 29 29
60 65 66 68 76 78 79 80 82 81 82 85 87 84 76 63 53 50 49 49 47 46 47 51 51 49 51 54 55 52 51 48 35 28 25 25 26 29 29 31 33 32 31
59 65 71 74 75 79 80 82 82 84 86 89 85 76 63 55 49 46 46 46 45 45 49 50 49 50 53 54 51 50 43 29 24 24 26 30 33 36 37 35 35 35 34
73 76 76 77 78 83 84 84 85 89 93 92 80 65 53 49 46 43 42 42 45 49 50 49 50 52 52 50 49 42 26 19 23 29 33 36 36 37 38 38 39 39 38
79 79 80 81 83 89 90 90 93 97 97 85 66 55 50 47 46 44 44 47 50 51 50 50 51 51 48 46 42 29 20 21 27 31 32 35 37 37 34 30 26 24 31
77 81 81 82 87 92 89 93 92 94 83 64 55 52 50 48 45 45 49 53 53 52 51 51 51 48 45 42 31 22 20 25 28 29 30 32 32 28 25 24 20 22 28
77 79 82 81 82 83 88 92 91 76 61 55 53 51 48 46 46 51 55 56 54 53 52 49 46 44 42 36 24 20 24 27 24 25 23 22 23 24 21 18 16 15 11
82 83 84 85 90 92 83 88 66 57 53 54 53 50 48 50 54 57 57 57 56 54 49 45 41 37 36 27 19 21 24 22 20 19 19 16 18 17 12 13 11 11 11
81 86 89 87 87 90 86 65 55 53 54 54 50 50 53 56 58 58 59 58 55 51 46 42 36 30 28 19 16 19 16 17 19 19 20 18 21 19 10 2 5 8 8
81 84 87 91 92 82 60 52 53 54 53 51 52 55 58 59 60 60 57 54 52 49 43 37 28 22 22 15 14 10 9 11 12 14 11 16 20 20 13 9 8 11 13
85 86 84 84 70 54 49 52 53 51 51 54 56 58 60 60 57 53 50 48 46 44 37 27 16 16 17 14 9 3 4 6 8 7 7 11 10 12 14 16 18 17 17

GFSMW_500_spd_009.txt.gz
Wind_Speed
24 26 26 26 26 30 31 33 36 39 43 46 48 49 50 51 53 55 56 55 56 58 60 60 61 62 61 61 61 62 63 64 64 64 63 63 64 64 64 63 60 60 60
25 25 28 30 29 32 31 32 34 40 44 48 50 50 51 52 52 54 58 61 63 64 63 61 61 62 63 63 62 60 60 61 61 62 62 62 65 68 70 69 67 65 64
27 30 30 28 30 31 32 36 40 44 48 50 53 55 52 54 53 55 57 60 62 62 63 63 63 61 61 61 62 61 60 59 60 61 63 64 66 68 69 70 71 70 66
27 30 29 30 32 33 38 40 44 49 51 51 52 53 56 56 57 60 62 61 61 63 63 62 61 62 64 66 67 66 66 66 63 64 63 63 66 70 69 65 67 69 69
30 32 31 33 37 40 44 47 53 55 54 54 55 57 58 57 56 57 57 58 60 60 60 61 63 65 66 67 70 68 68 69 68 71 72 73 71 70 70 70 64 64 66
34 34 40 40 42 47 49 54 57 59 59 58 59 59 58 58 59 61 63 63 65 66 68 69 69 67 65 63 64 66 67 69 68 71 70 71 71 72 73 66 63 62 59
41 43 45 46 50 53 56 58 59 59 57 57 56 56 58 60 62 64 66 69 71 71 70 69 69 69 66 66 66 67 65 66 65 68 66 71 71 72 73 71 67 66 63
47 49 50 51 53 55 57 58 57 56 56 58 60 61 63 65 67 70 72 73 74 76 76 76 74 72 68 65 64 63 64 58 63 64 72 71 73 75 77 77 75 70 68
50 50 50 49 53 54 54 54 53 52 57 60 62 64 66 70 71 73 75 78 80 81 80 77 72 71 67 64 55 62 65 68 70 72 71 73 76 84 79 76 72 70 65
46 46 47 50 52 51 54 54 56 60 63 65 68 70 71 73 76 79 81 84 84 82 80 76 73 69 66 59 58 64 67 70 71 74 80 83 82 80 75 71 67 66 64
45 47 48 49 50 56 59 60 62 64 68 70 71 73 78 81 79 78 77 77 78 79 76 71 68 65 61 58 59 62 65 69 72 75 76 73 71 69 67 67 66 66 65
46 45 48 53 57 59 60 61 62 66 70 72 77 82 81 82 81 82 80 80 77 73 69 65 61 58 55 53 54 55 57 58 59 61 63 64 65 65 67 69 69 70 69
49 52 54 59 58 61 64 65 71 73 75 79 83 84 83 82 81 82 84 76 71 66 60 57 53 49 49 51 52 53 53 54 55 58 60 61 61 62 64 65 66 67 68
53 56 57 59 57 60 65 72 74 77 80 83 83 83 85 85 85 91 89 78 65 55 51 49 48 49 50 49 49 48 51 56 55 55 58 60 63 64 65 66 66 67 67
55 57 58 59 57 58 65 73 77 78 81 83 84 87 94 91 87 86 84 66 53 49 49 48 48 47 47 47 47 51 52 52 54 56 56 57 59 60 61 61 59 60 61
58 58 58 58 61 68 72 77 81 83 84 84 87 88 86 88 88 87 62 49 47 48 53 51 48 45 45 48 49 49 50 52 51 50 52 56 51 44 38 34 30 28 30
60 58 61 68 71 71 75 77 87 87 87 86 84 82 89 91 74 55 48 46 47 48 48 45 43 44 47 48 48 49 51 48 47 50 47 36 29 30 31 33 34 34 35
61 64 67 69 71 75 78 87 86 88 90 89 84 87 90 81 63 50 46 46 46 44 43 43 46 48 49 48 49 49 45 43 45 39 28 25 28 33 38 39 39 40 40
64 70 68 73 72 73 81 88 90 91 91 87 89 89 75 60 52 49 47 45 43 43 45 48 51 51 49 49 49 45 41 40 33 26 26 30 34 38 40 39 38 38 37
70 74 67 71 76 84 87 88 90 88 89 86 81 62 52 52 51 48 45 44 45 48 51 53 54 51 49 48 44 39 38 30 23 24 28 34 36 36 37 35 33 29 28
75 78 79 80 86 93 96 92 90 85 82 76 59 53 52 52 49 47 47 50 53 55 55 55 55 52 48 43 38 36 31 21 19 23 29 33 33 31 32 33 22 19 18
70 77 87 86 88 89 87 93 87 77 66 55 51 53 51 50 50 52 54 56 57 57 57 56 53 49 46 40 34 30 20 16 18 23 26 26 22 23 26 21 13 12 12
77 90 89 91 85 83 91 88 71 61 55 52 53 52 52 54 55 57 58 59 59 58 55 53 49 44 42 37 30 19 13 15 18 21 18 14 12 14 14 12 8 8 12
87 91 88 84 87 88 87 66 57 52 52 53 51 52 54 57 59 61 60 57 55 52 49 44 38 34 32 28 20 12 11 12 10 13 13 10 12 16 13 12 13 13 13
86 84 82 84 90 83 62 54 51 53 52 50 52 54 57 59 58 55 52 48 45 42 37 35 30 24 21 19 12 8 6 5 7 10 9 2 5 3 8 13 15 16 16
82 90 90 87 71 55 48 47 52 50 49 51 55 57 56 53 49 46 43 42 40 40 38 34 27 17 10 11 7 9 7 6 4 6 3 2 0 6 8 9 13 19 21

GFSMW_500_spd_015.txt.gz
Wind_Speed
21 24 28 31 32 33 35 37 40 41 41 43 47 49 50 54 52 53 53 53 51 51 53 54 55 56 57 57 58 60 61 60 59 59 57 56 56 55 55 55 55 57 58
27 30 32 32 34 34 35 38 39 39 44 47 49 49 52 52 52 52 52 52 54 54 53 55 56 58 59 59 59 60 62 64 65 66 64 63 59 58 59 60 60 60 61
30 32 33 33 35 35 38 39 40 44 47 49 51 52 52 51 51 53 55 57 57 57 59 60 60 61 62 63 65 66 66 68 67 65 66 66 63 60 58 60 62 62 63
30 31 32 35 35 37 39 41 43 48 49 48 49 51 52 53 54 58 59 59 60 62 63 64 65 67 66 66 68 71 72 73 73 71 72 71 68 66 62 60 61 63 65
31 31 34 35 37 41 43 45 47 48 47 48 51 53 55 56 60 62 63 64 64 66 67 68 70 70 72 74 75 71 69 71 72 74 70 69 69 70 67 62 63 63 68
33 34 36 39 41 43 45 46 46 48 50 53 55 57 59 62 65 68 69 69 71 72 74 77 77 77 79 79 77 78 77 75 75 76 73 71 71 72 70 65 67 65 68
37 39 40 42 43 43 44 45 48 50 53 56 59 62 65 68 70 71 74 75 76 77 81 81 82 81 80 80 78 76 76 78 79 77 74 72 68 67 67 66 68 70 68
39 39 41 43 45 47 48 49 53 57 60 61 64 68 72 73 75 75 75 71 76 79 82 85 85 83 81 83 82 83 82 79 78 76 70 66 65 63 59 61 69 73 69
39 41 43 45 47 49 52 56 61 64 65 66 70 73 75 76 77 78 78 79 82 86 88 88 87 87 88 91 91 87 80 74 70 65 55 52 50 64 74 66 70 75 67
38 42 45 46 50 53 57 61 64 66 68 71 74 75 77 76 76 77 80 83 82 85 89 90 91 97 98 95 86 77 67 60 55 53 51 54 62 62 61 69 76 75 78
43 46 46 49 52 58 63 65 68 70 72 74 76 76 77 77 78 82 82 83 86 89 93 99 102 95 82 73 64 54 50 48 47 47 47 48 54 61 65 67 68 71 74
47 47 49 54 60 63 65 68 71 73 75 75 75 78 80 80 82 81 81 85 90 93 94 91 86 75 59 49 45 48 50 49 46 44 45 47 50 52 55 57 61 65 69
48 52 57 60 62 66 70 71 74 76 77 77 79 78 79 80 85 85 87 90 95 96 91 79 64 52 47 44 45 49 49 50 51 52 55 50 48 48 50 52 53 54 56
56 58 60 63 66 69 70 73 75 75 78 79 79 80 82 81 80 86 94 95 96 87 69 57 49 45 45 47 50 52 52 53 51 48 46 44 46 47 48 49 50 52 54
59 62 66 69 70 72 74 77 80 80 79 78 78 80 83 86 90 94 91 85 75 59 52 49 48 48 49 50 50 50 48 45 44 43 44 46 47 48 49 49 50 53 55
63 67 69 70 71 76 79 79 78 78 78 81 80 84 88 91 97 95 71 62 54 49 49 50 48 46 46 46 46 45 43 43 43 44 46 47 48 49 50 51 51 50 49
70 71 71 74 78 82 82 79 78 79 78 80 87 94 95 90 84 67 56 51 52 51 48 47 46 46 47 47 48 48 48 48 48 48 47 47 47 47 46 45 45 46 45
73 71 71 73 80 86 82 82 84 82 81 87 87 91 82 68 61 54 52 53 51 49 49 51 52 52 54 54 54 53 52 51 50 48 46 44 43 42 40 39 39 31 30
73 72 75 75 90 89 87 84 85 86 88 87 88 75 63 54 49 52 51 50 52 53 55 56 57 57 57 57 56 56 55 53 50 47 44 41 38 36 35 30 25 29 34
77 76 75 87 91 87 84 84 83 85 88 83 68 59 48 46 50 50 51 53 56 57 57 55 54 52 50 49 48 47 45 44 41 39 37 34 31 29 23 20 24 24 25
75 79 86 90 86 81 79 83 85 83 77 65 58 49 47 50 50 52 54 56 57 54 52 50 48 47 46 44 42 41 39 33 27 26 26 24 24 17 13 15 12 9 9
78 82 81 80 76 76 79 78 78 72 62 57 47 47 48 48 51 53 56 56 54 50 47 44 42 42 42 42 39 37 33 26 17 17 16 17 15 9 9 5 6 8 9
76 77 76 73 72 76 75 75 70 61 58 49 46 47 46 49 51 54 56 53 50 47 43 40 41 37 37 36 35 30 23 15 13 12 11 11 10 8 7 1 5 9 11
76 75 72 72 75 73 73 70 59 56 49 44 45 44 46 49 51 54 54 50 47 44 41 41 36 33 31 29 27 20 12 7 11 10 7 9 7 11 7 2 3 12 11
77 75 74 75 72 71 68 59 55 52 43 43 42 43 46 47 50 51 49 48 46 42 38 34 31 25 21 22 20 10 2 8 11 9 4 3 5 8 7 3 3 9 11
75 73 73 72 70 67 59 55 53 44 40 39 39 42 44 45 48 47 45 43 40 38 36 33 26 23 20 16 9 1 7 8 7 5 4 3 6 9 8 4 3 7 10